TIME,�g��[���C[MJ/h],����[MJ/h],�Ɩ�[MJ/h],�~�[[MJ/h],�①��[MJ/h],��y���[MJ/h],�Ǝ��q��[MJ/h],���̑�[MJ/h],�����G�l���M�[[MJ/h]
2003/8/1 0:00,0,0,0,0,0.8957,0.1708,0.035,0.5089,0
2003/8/1 0:15,0,0,0,0,0.8414,0.1705,0.1784,0.528,0
2003/8/1 0:30,0,0,0,0,0.8623,0.1695,0.0459,0.5268,0
2003/8/1 0:45,0,0,0,0,0.8783,0.1695,0.0351,0.5142,0
2003/8/1 1:00,0,0,0,0,0.5746,0.1719,0.0353,0.5219,0
2003/8/1 1:15,0,0,0,0,0.6402,0.1699,0.0348,0.5067,0
2003/8/1 1:30,0,0,0,0,0.859,0.1675,0.0348,0.5013,0
2003/8/1 1:45,0,0,0,0,0.8525,0.1688,0.0351,0.5018,0
2003/8/1 2:00,0,0,0,0,0.8083,0.1712,0.1804,0.4883,0
2003/8/1 2:15,0,0,0,0,0.5184,0.1729,0.0353,0.516,0
2003/8/1 2:30,0,0,0,0,0.6844,0.1689,0.0346,0.51,0
2003/8/1 2:45,0,0,0,0,0.8473,0.167,0.0348,0.4928,0
2003/8/1 3:00,0,0,0,0,0.8335,0.1679,0.0347,0.492,0
2003/8/1 3:15,0,0,0,0,0.7219,0.1699,0.1187,0.5099,0
2003/8/1 3:30,0,0,0,0,0.4393,0.1722,0.035,0.5109,0
2003/8/1 3:45,0,0,0,0,0.4746,0.1709,0.11,0.4791,0
2003/8/1 4:00,0,0,0,0,0.7913,0.1702,0.0348,0.4939,0
2003/8/1 4:15,0,0,0,0,0.8397,0.1706,0.035,0.4997,0
2003/8/1 4:30,0,0,0,0,0.5112,0.1732,0.0351,0.5177,0
2003/8/1 4:45,0,0,0,0,0.7013,0.1715,0.1217,0.5208,0
2003/8/1 5:00,0,0,0,0,0.8484,0.1709,0.0351,0.503,0
2003/8/1 5:15,0,0,0,0,0.6409,0.1722,0.035,0.4854,0
2003/8/1 5:30,0,0,0,0,0.3146,0.1708,0.035,0.4869,0
2003/8/1 5:45,0,0,0,0,0.6057,0.1718,0.0894,0.5054,0
2003/8/1 6:00,0,0,0.0186,0,0.8569,0.1727,0.1156,0.539,0
2003/8/1 6:15,0,0,0.021,0,0.8339,0.1884,0.0347,0.5471,0
2003/8/1 6:30,0,0,0.4684,0,0.6575,0.412,0.0346,0.4437,0
2003/8/1 6:45,0,0,0.3426,0.6316,0.7376,0.4209,0.0344,0.4432,0
2003/8/1 7:00,0,0,0,0,0.5808,0.4393,0.0907,0.4265,0
2003/8/1 7:15,0,0,0,0,0.6404,0.1909,0.1247,0.4317,0
2003/8/1 7:30,0,0,0,0,0.5967,0.1727,0.0344,0.4389,0
2003/8/1 7:45,0,0,0,0,0.63,0.1761,0.1071,0.4405,0
2003/8/1 8:00,0,0,0,0,0.8502,0.1788,0.0347,0.4277,0
2003/8/1 8:15,0,0,0.0003,0,0.831,0.179,0.1212,0.4232,0
2003/8/1 8:30,0,0,0,0.5996,0.6044,0.2929,0.0347,0.4592,0
2003/8/1 8:45,0,0,0.1182,0,0.392,0.4056,0.0351,0.4078,0
2003/8/1 9:00,0,0,0.0318,0,0.7762,0.4166,0.1606,0.4117,0
2003/8/1 9:15,0,0,0.0325,0,0.8248,0.4163,0.0943,0.4316,0
2003/8/1 9:30,0,0,0.0039,0.0063,0.9043,0.4029,0.0351,0.4314,0
2003/8/1 9:45,0,0,0.5531,0.0072,1.1251,0.4121,0.1266,0.4441,0
2003/8/1 10:00,0,0,0,0.0072,0.9222,0.4108,0.0351,0.5511,0
2003/8/1 10:15,0,0,0,0.0072,0.9124,0.2013,0.0348,0.4399,0
2003/8/1 10:30,0,0,0,0.0071,0.8833,0.1695,0.0348,0.4437,0
2003/8/1 10:45,0,0,0,0.0072,0.8423,0.1683,0.1907,0.4542,0
2003/8/1 11:00,0,0,0,0.0072,0.8333,0.1721,0.0351,0.4428,0
2003/8/1 11:15,0,0,0,0.0073,0.916,0.1714,0.035,0.4411,0
2003/8/1 11:30,0,0,0,0.0072,0.8722,0.1702,0.035,0.4415,0
2003/8/1 11:45,0,0,0,0.0072,0.8401,0.1786,0.122,0.4432,0
2003/8/1 12:00,0,0,0,0.0072,0.905,0.1888,0.0351,0.4434,0
2003/8/1 12:15,0,0,0,0.0073,0.9032,0.1699,0.1043,0.4414,0
2003/8/1 12:30,0,0,0,0.0072,0.852,0.1704,0.035,0.444,0
2003/8/1 12:45,0,0,0,0.0073,0.4746,0.1711,0.0351,0.447,0
2003/8/1 13:00,0,0,0,0.0072,0.7965,0.1708,0.1178,0.4343,0
2003/8/1 13:15,0,0,0,0.0072,0.8528,0.1716,0.0353,0.4438,0
2003/8/1 13:30,0,0,0,0.0073,0.8302,0.1709,0.0348,0.4395,0
2003/8/1 13:45,0,0,0,0.0072,0.8336,0.1711,0.035,0.4385,0
2003/8/1 14:00,0,0,0,0.0072,0.8958,0.1692,0.1002,0.4368,0
2003/8/1 14:15,0,0,0,0.0072,0.845,0.1696,0.0348,0.4401,0
2003/8/1 14:30,0,0,0,0.0072,0.5459,0.1712,0.1197,0.435,0
2003/8/1 14:45,0,0,0,0.0072,0.7089,0.1711,0.0348,0.4385,0
2003/8/1 15:00,0,0,0,0.0072,0.8616,0.1702,0.0351,0.444,0
2003/8/1 15:15,0,0,0,0.0072,0.8361,0.1693,0.035,0.4383,0
2003/8/1 15:30,0,0,0,0.0072,0.8232,0.1702,0.0348,0.4376,0
2003/8/1 15:45,0,0,0,0.0071,0.8963,0.1702,0.0782,0.4236,0
2003/8/1 16:00,0,0,0,0.0072,0.859,0.1693,0.0573,0.4461,0
2003/8/1 16:15,0,0,0,0.0072,0.6153,0.1695,0.1174,0.437,0
2003/8/1 16:30,0,0,0,0.0072,0.6041,0.1699,0.0348,0.4409,0
2003/8/1 16:45,0,0,0,0.1302,0.8626,0.1693,0.0348,0.4396,0
2003/8/1 17:00,0,0,0,1.2357,0.8532,0.1699,0.0351,0.4447,0
2003/8/1 17:15,0,0,0,0.9081,0.8264,0.1698,0.0348,0.4347,0
2003/8/1 17:30,0,0,0.0053,0.2176,0.887,0.1799,0.0351,0.398,0
2003/8/1 17:45,0,0,0,0.0265,0.8755,0.36,0.0351,0.4327,0
2003/8/1 18:00,0,0,0,0.0255,0.6376,0.3622,0.1921,0.4301,0
2003/8/1 18:15,0,0,0.0036,0.0258,0.591,0.3185,0.035,0.4432,0
2003/8/1 18:30,0,0,0.2143,0.0256,0.8581,0.1721,0.0348,0.4391,0
2003/8/1 18:45,0,0,0.2128,0.0256,0.8316,0.18,0.035,0.4566,0
2003/8/1 19:00,0,0,0.4324,0.0253,0.8194,0.2573,0.0347,0.5312,0
2003/8/1 19:15,0,0,0.6971,0.0626,0.8738,0.4081,0.0347,0.4474,0
2003/8/1 19:30,0,0,0.6692,0.087,0.8438,0.4068,0.0348,0.4373,0
2003/8/1 19:45,0,0,0.6568,0.0788,0.8035,0.4094,0.1241,0.4461,0
2003/8/1 20:00,0,0,0.6545,0.1161,1.0987,0.4126,0.1032,0.5412,0
2003/8/1 20:15,0,0,0.6473,0.1053,0.9664,0.4067,0.0347,0.4342,0
2003/8/1 20:30,0,0,0.7721,0.0981,0.9452,0.4026,0.0348,0.4275,0
2003/8/1 20:45,0,0,0.8302,0.0891,0.8883,0.4071,0.0346,0.4321,0
2003/8/1 21:00,0,0,0.828,0.0877,0.8667,0.409,0.0347,0.4352,0
2003/8/1 21:15,0,0,0.8785,0.0891,0.8345,0.3901,0.0351,0.5162,0
2003/8/1 21:30,0,0,0.5858,0.2216,0.923,0.4563,0.0348,0.4517,0
2003/8/1 21:45,0,0,0.4369,0,0.8905,0.4971,0.1175,0.4539,0
2003/8/1 22:00,0,0,0.4393,0,0.8754,0.5184,0.1074,0.4709,0
2003/8/1 22:15,0,0,0.4392,0,0.9012,0.5161,0.0347,0.456,0
2003/8/1 22:30,0,0,0.4496,0,0.8594,0.4532,0.0347,0.4615,0
2003/8/1 22:45,0,0,0.4352,0,0.9108,0.4121,0.0346,0.49,0
2003/8/1 23:00,0,0,0.6569,0,0.8293,0.4128,0.035,0.4872,0
2003/8/1 23:15,0,0,0.5129,0,0.4704,0.4128,0.035,0.4972,0
2003/8/1 23:30,0,0,0.6882,0,0.773,0.408,0.1201,0.4581,0
2003/8/1 23:45,0,0,0.9435,0,0.8693,0.2701,0.0351,0.498,0
2003/8/2 0:00,0,0,0.3472,0,0.8263,0.2138,0.11,0.4982,0
2003/8/2 0:15,0,0,0.2144,0,0.5013,0.5005,0.035,0.5037,0
2003/8/2 0:30,0,0,0.0488,0,0.6941,0.2017,0.0348,0.4889,0
2003/8/2 0:45,0,0,0,0,0.8538,0.1708,0.035,0.4802,0
2003/8/2 1:00,0,0,0,0,0.8274,0.1696,0.0353,0.4827,0
2003/8/2 1:15,0,0,0,0,0.618,0.1685,0.1185,0.488,0
2003/8/2 1:30,0,0,0,0,0.5862,0.1666,0.0348,0.4931,0
2003/8/2 1:45,0,0,0,0,0.8516,0.1668,0.0965,0.4866,0
2003/8/2 2:00,0,0,0,0,0.8476,0.1678,0.035,0.4847,0
2003/8/2 2:15,0,0,0,0,0.723,0.1682,0.0351,0.4923,0
2003/8/2 2:30,0,0,0,0,0.4762,0.1692,0.0351,0.5075,0
2003/8/2 2:45,0,0,0,0,0.8443,0.1646,0.0347,0.4782,0
2003/8/2 3:00,0,0,0,0,0.8574,0.1652,0.1192,0.4902,0
2003/8/2 3:15,0,0,0,0,0.7942,0.1665,0.1063,0.4769,0
2003/8/2 3:30,0,0,0,0,0.4378,0.167,0.035,0.5008,0
2003/8/2 3:45,0,0,0,0,0.4111,0.1669,0.0348,0.4753,0
2003/8/2 4:00,0,0,0,0,0.79,0.1663,0.035,0.4769,0
2003/8/2 4:15,0,0,0,0,0.8271,0.1673,0.035,0.4802,0
2003/8/2 4:30,0,0,0,0,0.5177,0.1686,0.1205,0.5092,0
2003/8/2 4:45,0,0,0,0,0.7105,0.1692,0.0351,0.4912,0
2003/8/2 5:00,0,0,0,0,0.8556,0.1698,0.1083,0.4785,0
2003/8/2 5:15,0,0,0,0,0.8129,0.1662,0.0347,0.4572,0
2003/8/2 5:30,0,0,0,0,0.5547,0.1652,0.0346,0.4739,0
2003/8/2 5:45,0,0,0,0,0.6512,0.166,0.0346,0.4656,0
2003/8/2 6:00,0,0,0,0,0.864,0.1679,0.0344,0.4545,0
2003/8/2 6:15,0,0,0,0,0.8074,0.1675,0.1174,0.4343,0
2003/8/2 6:30,0,0,0,0,0.5993,0.2794,0.0343,0.4484,0
2003/8/2 6:45,0,0,0.0877,0,0.5875,0.4209,0.0351,0.4336,0
2003/8/2 7:00,0,0,0,0,0.846,0.3627,0.0936,0.4393,0
2003/8/2 7:15,0,0,0,0,0.6608,0.176,0.035,0.4241,0
2003/8/2 7:30,0,0,0.0027,0.5656,0.5668,0.174,0.0346,0.4519,0
2003/8/2 7:45,0,0,0,0,1.1507,0.1738,0.1256,0.4236,0
2003/8/2 8:00,0,0,0,0,0.9554,0.1771,0.035,0.4386,0
2003/8/2 8:15,0,0,0,0,0.9333,0.3457,0.1025,0.428,0
2003/8/2 8:30,0,0,0,0,0.8918,0.4092,0.0347,0.4334,0
2003/8/2 8:45,0,0,0,0.3313,0.858,0.4126,0.0346,0.4349,0
2003/8/2 9:00,0,0,0,0,0.8283,0.4082,0.1208,0.4226,0
2003/8/2 9:15,0,0,0,0,0.9243,0.501,0.0347,0.4311,0
2003/8/2 9:30,0,0,0,0,0.8758,0.5399,0.1004,0.4291,0
2003/8/2 9:45,0,0,0.4859,0,0.7116,0.4019,0.0346,0.4175,0
2003/8/2 10:00,0,0,0.0225,0,0.4994,0.3995,0.0351,0.5378,0
2003/8/2 10:15,0,0,0.033,0,0.8623,0.4005,0.0351,0.4173,0
2003/8/2 10:30,0,0,0.0475,0,0.8598,0.3974,0.1194,0.4123,0
2003/8/2 10:45,0,0,1.1712,0,0.8184,0.432,0.0347,2.3007,0
2003/8/2 11:00,0,0,0.4656,0,0.5579,0.4203,0.1012,0.453,0
2003/8/2 11:15,0,0,0,0,0.652,0.4545,0.0353,0.4356,0
2003/8/2 11:30,0,0,0,0,0.8732,0.4195,0.0357,0.4324,0
2003/8/2 11:45,0,0,0,0,0.8561,0.5597,0.1211,0.4251,0
2003/8/2 12:00,0,0,0,0,0.8196,0.6467,0.0357,0.4332,0
2003/8/2 12:15,0,0,0,0,0.5178,0.6404,0.0357,0.5334,0
2003/8/2 12:30,0,0,0,0,0.732,0.4108,0.105,0.4238,0
2003/8/2 12:45,0,0,0,0,0.8781,0.4139,0.035,0.4231,0
2003/8/2 13:00,0,0,0,0,0.8783,0.4244,0.1449,0.4357,0
2003/8/2 13:15,0,0,0,0,0.8519,0.9219,0.0351,0.4203,0
2003/8/2 13:30,0,0,0,0,0.8634,0.9245,0.0354,0.4321,0
2003/8/2 13:45,0,0,0,0,0.9252,0.8084,0.0356,0.4375,0
2003/8/2 14:00,0,0,0,0,0.8552,0.1957,0.0354,0.4441,0
2003/8/2 14:15,0,0,0,0,0.5047,0.1958,0.1987,0.4421,0
2003/8/2 14:30,0,0,0,0,0.7488,0.1953,0.0354,0.437,0
2003/8/2 14:45,0,0,0,0,0.8693,0.1951,0.0354,0.433,0
2003/8/2 15:00,0,0,0,0,0.8428,0.196,0.0356,0.4349,0
2003/8/2 15:15,0,0,0,0,0.8388,0.1954,0.0354,0.4353,0
2003/8/2 15:30,0,0,0,0,0.9134,0.1957,0.0356,0.4405,0
2003/8/2 15:45,0,0,0,0,0.7944,0.1966,0.1198,0.4611,0
2003/8/2 16:00,0,0,0,0,0.4815,0.1935,0.0354,0.4533,0
2003/8/2 16:15,0,0,0,0,0.8031,0.1963,0.0356,0.4451,0
2003/8/2 16:30,0,0,0,0,0.8803,0.4121,0.1102,0.4346,0
2003/8/2 16:45,0,0,0,0,0.8603,0.4141,0.0357,0.4457,0
2003/8/2 17:00,0,0,0,0,0.8404,0.4198,0.0356,0.4465,0
2003/8/2 17:15,0,0,0,0,0.9213,0.2609,0.0357,0.4588,0
2003/8/2 17:30,0,0,0,0,0.9022,0.3852,0.0985,0.4457,0
2003/8/2 17:45,0,0,0.0029,0,0.8425,0.1934,0.0596,0.4738,0
2003/8/2 18:00,0,0,0,0,1.0276,0.1927,0.0356,0.4608,0
2003/8/2 18:15,0,0,0,0,1.1529,0.193,0.0356,0.4573,0
2003/8/2 18:30,0,0,0,0,0.9668,0.1909,0.0353,0.4497,0
2003/8/2 18:45,0,0,0,0,0.9697,0.1954,0.1054,0.4713,0
2003/8/2 19:00,0,0,0.3876,0,0.9386,0.2197,0.035,0.4897,0
2003/8/2 19:15,0,0,0.6229,0,0.9073,0.1912,0.0351,0.4848,0
2003/8/2 19:30,0,0,0.6123,0,0.8963,0.1927,0.1188,0.4549,0
2003/8/2 19:45,0,0,0.6032,0,0.9304,0.1921,0.0356,0.5004,0
2003/8/2 20:00,0,0,0.5986,0,0.8928,0.1918,0.0353,0.4576,0
2003/8/2 20:15,0,0,0.5973,0,0.9105,0.1912,0.0354,0.4648,0
2003/8/2 20:30,0,0,0.5917,0,0.9287,0.1917,0.0354,0.4477,0
2003/8/2 20:45,0,0,0.5887,0,0.6431,0.1908,0.0353,0.4693,0
2003/8/2 21:00,0,0,0.5887,0,0.6031,0.1871,0.035,0.4412,0
2003/8/2 21:15,0,0,0.5913,0,0.8571,0.1878,0.1725,0.5404,0
2003/8/2 21:30,0,0,0.757,0,0.8283,0.5178,0.0347,0.8712,0
2003/8/2 21:45,0,0,1.0146,0,0.6895,0.7658,0.0348,1.2656,0
2003/8/2 22:00,0,0,1.0778,0,0.509,0.6611,0.0344,0.5432,0
2003/8/2 22:15,0,0,1.1618,0,0.8652,0.4088,0.0346,0.4267,0
2003/8/2 22:30,0,0,0.8179,0,0.8693,0.4085,0.0348,0.4306,0
2003/8/2 22:45,0,0,0.7464,0,0.8843,0.4113,0.0348,0.4376,0
2003/8/2 23:00,0,0,0.8781,0,0.8348,0.4105,0.1201,0.437,0
2003/8/2 23:15,0,0,0.8343,0,0.8855,0.408,0.0968,0.4717,0
2003/8/2 23:30,0,0,1.3365,0,0.8945,0.4081,0.0348,0.4219,0
2003/8/2 23:45,0,0,1.1396,0,0.8434,0.4058,0.0346,0.5689,0
2003/8/3 0:00,0,0,0.3902,0,0.8948,0.3234,0.035,0.66,0
2003/8/3 0:15,0,0,0,0,0.8971,0.1656,0.0348,0.5203,0
2003/8/3 0:30,0,0,0,0,0.613,0.1662,0.0351,0.517,0
2003/8/3 0:45,0,0,0,0,0.6504,0.1689,0.1179,0.5164,0
2003/8/3 1:00,0,0,0,0,0.8641,0.1662,0.1014,0.5092,0
2003/8/3 1:15,0,0,0,0,0.8574,0.1643,0.035,0.5116,0
2003/8/3 1:30,0,0,0,0,0.8047,0.1636,0.0347,0.5095,0
2003/8/3 1:45,0,0,0,0,0.8623,0.1642,0.0348,0.51,0
2003/8/3 2:00,0,0,0,0,0.9122,0.1644,0.0351,0.5116,0
2003/8/3 2:15,0,0,0,0,0.8572,0.1653,0.0351,0.5177,0
2003/8/3 2:30,0,0,0,0,0.5184,0.1647,0.1207,0.5181,0
2003/8/3 2:45,0,0,0,0,0.7158,0.1624,0.0919,0.4991,0
2003/8/3 3:00,0,0,0,0,0.8682,0.1626,0.0346,0.506,0
2003/8/3 3:15,0,0,0,0,0.8369,0.163,0.0348,0.5072,0
2003/8/3 3:30,0,0,0,0,0.7392,0.163,0.0347,0.5128,0
2003/8/3 3:45,0,0,0,0,0.4723,0.1647,0.0348,0.5181,0
2003/8/3 4:00,0,0,0,0,0.798,0.1646,0.0351,0.502,0
2003/8/3 4:15,0,0,0,0,0.8552,0.1657,0.1174,0.4967,0
2003/8/3 4:30,0,0,0,0,0.8365,0.1663,0.1068,0.4998,0
2003/8/3 4:45,0,0,0,0,0.9351,0.1646,0.0351,0.501,0
2003/8/3 5:00,0,0,0,0,1.1251,0.1637,0.0347,0.4906,0
2003/8/3 5:15,0,0,0,0,0.9035,0.1652,0.0348,0.4843,0
2003/8/3 5:30,0,0,0,0,0.9081,0.1653,0.0347,0.4877,0
2003/8/3 5:45,0,0,0,0,0.8932,0.166,0.0347,0.4866,0
2003/8/3 6:00,0,0,0,0,0.8618,0.1659,0.1175,0.4715,0
2003/8/3 6:15,0,0,0,0,0.828,0.1655,0.0346,0.4709,0
2003/8/3 6:30,0,0,0,0,0.8904,0.1665,0.0344,0.4657,0
2003/8/3 6:45,0,0,0,0,0.8755,0.1729,0.1001,0.4625,0
2003/8/3 7:00,0,0,0,0,0.7085,0.3829,0.0344,0.4424,0
2003/8/3 7:15,0,0,0,0,0.5004,0.4081,0.0347,0.4406,0
2003/8/3 7:30,0,0,0,0,0.8582,0.228,0.0353,0.4337,0
2003/8/3 7:45,0,0,0,0,0.8735,0.1708,0.1284,0.484,0
2003/8/3 8:00,0,0,0.017,0,0.8241,0.1678,0.0344,0.5302,0
2003/8/3 8:15,0,0,0.1002,0,0.8359,0.1693,0.159,0.4283,0
2003/8/3 8:30,0,0,0.006,0.7311,0.9137,0.3624,0.4326,0.4092,0
2003/8/3 8:45,0,0,0,0.5152,0.8025,0.4107,0.0346,0.4575,0
2003/8/3 9:00,0,0,0.0086,0,0.4664,0.6257,0.3182,0.43,0
2003/8/3 9:15,0,0,0.724,0,0.8185,0.6211,0.6205,0.4476,0
2003/8/3 9:30,0,0,0.0274,0,0.8696,0.6417,0.4225,0.6012,0
2003/8/3 9:45,0,0,0.0109,0,0.8414,0.6368,0.1313,0.4202,0
2003/8/3 10:00,0,0,0,0,0.715,0.6348,0.0348,0.4287,0
2003/8/3 10:15,0,0,0,0,0.4664,0.6407,0.0348,0.4303,0
2003/8/3 10:30,0,0,1.3654,0,0.845,0.5792,0.1359,1.9315,0
2003/8/3 10:45,0,0,0,0,0.8548,0.4071,0.0855,0.4323,0
2003/8/3 11:00,0,0,0,0,0.8152,0.4054,0.0354,0.4211,0
2003/8/3 11:15,0,0,0,0,0.8467,0.4098,0.035,0.4277,0
2003/8/3 11:30,0,0,0,0,0.9085,0.418,0.1443,0.4313,0
2003/8/3 11:45,0,0,0,0,0.84,0.4225,0.0351,0.4386,0
2003/8/3 12:00,0,0,0,1.6844,0.9003,0.4307,0.0351,0.4654,0
2003/8/3 12:15,0,0,0,0,0.9081,0.4177,0.0351,0.4389,0
2003/8/3 12:30,0,0,0,0.6902,0.8849,0.4189,0.126,0.4213,0
2003/8/3 12:45,0,0,0,2.1434,0.9435,0.3515,0.1076,0.4733,0
2003/8/3 13:00,0,0,0,0.6029,0.8726,0.2097,0.035,0.472,0
2003/8/3 13:15,0,0,0,0.0744,0.9099,0.2107,0.0351,0.4242,0
2003/8/3 13:30,0,0,0,0.0261,0.9196,0.2102,0.035,0.4414,0
2003/8/3 13:45,0,0,0,0.0259,0.816,0.2105,0.035,0.4494,0
2003/8/3 14:00,0,0,0,0.0264,0.4905,0.21,0.1225,0.4618,0
2003/8/3 14:15,0,0,0,0.0259,0.8548,0.2091,0.0351,0.4463,0
2003/8/3 14:30,0,0,0,0.0259,0.8803,0.2094,0.035,0.4488,0
2003/8/3 14:45,0,0,0,0.0261,0.85,0.2114,0.0351,0.4497,0
2003/8/3 15:00,0,0,0,0.0264,0.8492,0.211,0.0354,0.4504,0
2003/8/3 15:15,0,0,0,0.0259,1.1301,0.2795,0.0351,0.4425,0
2003/8/3 15:30,0,0,0,0.0004,0.9968,0.4114,0.0351,0.4372,0
2003/8/3 15:45,0,0,0,0,0.9937,0.4136,0.0353,0.4329,0
2003/8/3 16:00,0,0,0,0,0.9248,0.4126,0.1211,0.4337,0
2003/8/3 16:15,0,0,0,0,0.9145,0.4134,0.0351,0.438,0
2003/8/3 16:30,0,0,0,0,0.8797,0.413,0.1017,0.4388,0
2003/8/3 16:45,0,0,0,0.5982,0.9003,0.3987,0.0351,0.4193,0
2003/8/3 17:00,0,0,0,2.0991,0.9359,0.4104,0.035,0.4546,0
2003/8/3 17:15,0,0,0,0.7479,0.898,0.4048,0.035,0.4427,0
2003/8/3 17:30,0,0,0,0.0842,0.9112,0.3997,0.0351,0.4123,0
2003/8/3 17:45,0,0,0.002,0.0033,0.95,0.3999,0.0353,0.4379,0
2003/8/3 18:00,0,0,0,0,0.8916,0.1873,0.0351,0.4513,0
2003/8/3 18:15,0,0,0,0,0.9374,0.4069,0.12,0.4404,0
2003/8/3 18:30,0,0,0,0,0.9048,0.1691,0.0348,0.4605,0
2003/8/3 18:45,0,0,0.662,0,0.8755,0.1776,0.035,0.4545,0
2003/8/3 19:00,0,0,0.7822,0,0.9338,0.2009,0.0348,0.4614,0
2003/8/3 19:15,0,0,0.7461,0,0.8869,0.1691,0.0347,0.4805,0
2003/8/3 19:30,0,0,1.0087,0,0.7073,0.1718,0.1041,0.48,0
2003/8/3 19:45,0,0,0.8353,0,0.5795,0.1695,0.0353,0.4958,0
2003/8/3 20:00,0,0,0.8165,0,0.8869,0.1689,0.0354,0.4736,0
2003/8/3 20:15,0,0,0.8165,0,0.8711,0.1711,0.0354,0.5304,0
2003/8/3 20:30,0,0,0.8116,0,0.8267,0.1672,0.1174,0.4742,0
2003/8/3 20:45,0,0,0.807,0,0.8745,0.1679,0.0347,0.4602,0
2003/8/3 21:00,0,0,0.8073,0,0.8945,0.1693,0.0347,0.4612,0
2003/8/3 21:15,0,0,0.8168,0,0.8473,0.3662,0.0348,0.4427,0
2003/8/3 21:30,0,0,1.0786,0,0.8889,0.4409,0.0346,0.5216,0
2003/8/3 21:45,0,0,1.6669,0,0.9045,0.9248,0.0346,0.6872,0
2003/8/3 22:00,0,0,1.783,0,0.7802,0.9382,0.0347,0.6424,0
2003/8/3 22:15,0,0,1.4918,0,0.4859,0.9789,0.1045,0.6831,0
2003/8/3 22:30,0,0,1.5071,0,0.8669,0.7124,0.0348,0.5967,0
2003/8/3 22:45,0,0,1.6968,0,0.8673,0.4232,0.1202,0.5872,0
2003/8/3 23:00,0,0,1.0205,0,0.8326,0.4146,0.0351,0.4555,0
2003/8/3 23:15,0,0,0.8889,0,0.8385,0.4065,0.035,0.4559,0
2003/8/3 23:30,0,0,0.932,0,0.9168,0.3338,0.0354,0.5031,0
2003/8/3 23:45,0,0,1.3834,0,0.8463,0.1672,0.035,0.4988,0
2003/8/4 0:00,0,0,1.4779,0,0.666,0.166,0.0351,0.4553,0
2003/8/4 0:15,0,0,0.2231,0,0.5806,0.2814,0.0351,0.4909,0
2003/8/4 0:30,0,0,0,0,0.8699,0.3993,0.1064,0.489,0
2003/8/4 0:45,0,0,0,0,0.8474,0.2323,0.1195,0.4874,0
2003/8/4 1:00,0,0,0,0,0.8293,0.1637,0.0351,0.4926,0
2003/8/4 1:15,0,0,0,0,1.0692,0.1676,0.0354,0.49,0
2003/8/4 1:30,0,0,0,0,1.128,0.1642,0.035,0.486,0
2003/8/4 1:45,0,0,0,0,0.8806,0.1636,0.0348,0.4844,0
2003/8/4 2:00,0,0,0,0,0.9128,0.1627,0.0351,0.492,0
2003/8/4 2:15,0,0,0,0,0.8967,0.1643,0.035,0.4941,0
2003/8/4 2:30,0,0,0,0,0.8562,0.165,0.0353,0.4952,0
2003/8/4 2:45,0,0,0,0,0.8798,0.1649,0.1822,0.4906,0
2003/8/4 3:00,0,0,0,0,0.8896,0.1633,0.0348,0.4864,0
2003/8/4 3:15,0,0,0,0,0.8616,0.1649,0.0348,0.485,0
2003/8/4 3:30,0,0,0,0,0.9151,0.1657,0.0347,0.4836,0
2003/8/4 3:45,0,0,0,0,0.8954,0.1646,0.035,0.487,0
2003/8/4 4:00,0,0,0,0,0.8639,0.1663,0.0347,0.4882,0
2003/8/4 4:15,0,0,0,0,0.9039,0.1668,0.0351,0.4893,0
2003/8/4 4:30,0,0,0,0,0.8765,0.1683,0.0351,0.492,0
2003/8/4 4:45,0,0,0,0,0.5165,0.167,0.1112,0.5047,0
2003/8/4 5:00,0,0,0,0,0.7386,0.1649,0.1198,0.4823,0
2003/8/4 5:15,0,0,0,0,0.8644,0.1656,0.0353,0.4759,0
2003/8/4 5:30,0,0,0,0,0.8366,0.1644,0.0348,0.473,0
2003/8/4 5:45,0,0,0,0,0.8202,0.1649,0.0348,0.4746,0
2003/8/4 6:00,0,0,0,0,0.9003,0.1649,0.0347,0.4694,0
2003/8/4 6:15,0,0,0,0,0.8528,0.1643,0.0344,0.4651,0
2003/8/4 6:30,0,0,0.088,0,0.6195,0.3779,0.035,0.4313,0
2003/8/4 6:45,0,0,0.1364,0.5664,0.6235,0.418,0.1241,0.5556,0
2003/8/4 7:00,0,0,0,0,0.8736,0.4244,0.0976,0.4333,0
2003/8/4 7:15,0,0,0,0,0.8482,0.6771,0.0343,0.4268,0
2003/8/4 7:30,0,0,0,0,0.8232,0.3495,0.0353,0.4463,0
2003/8/4 7:45,0,0,0,0,0.5001,0.1728,0.0348,0.4537,0
2003/8/4 8:00,0,0,0,0,0.7063,0.1712,0.0347,0.4357,0
2003/8/4 8:15,0,0,0,0,0.882,0.1702,0.0346,0.4267,0
2003/8/4 8:30,0,0,0.0003,0,0.8811,0.174,0.1912,0.4357,0
2003/8/4 8:45,0,0,0,0,1.0765,0.1735,0.035,0.4244,0
2003/8/4 9:00,0,0,0,0,0.9691,0.3905,0.0347,0.4342,0
2003/8/4 9:15,0,0,0,0.2733,1.0509,0.4068,0.0347,0.5414,0
2003/8/4 9:30,0,0,0.0688,0.0069,1.0012,0.414,0.0351,0.4791,0
2003/8/4 9:45,0,0,0.6227,0.0072,0.9694,0.4124,0.0821,0.4146,0
2003/8/4 10:00,0,0,0,0.0071,0.9328,0.4118,0.1012,0.5835,0
2003/8/4 10:15,0,0,0,0.0073,0.9048,0.2258,0.0353,0.4405,0
2003/8/4 10:30,0,0,0,0.0072,0.9315,0.1751,0.0354,0.4437,0
2003/8/4 10:45,0,0,0,0.0073,0.9174,0.1738,0.0351,0.4405,0
2003/8/4 11:00,0,0,0,0.0072,0.8997,0.174,0.1976,0.4481,0
2003/8/4 11:15,0,0,0,0.0071,0.952,0.1728,0.0348,0.436,0
2003/8/4 11:30,0,0,0,0.0071,0.8951,0.1716,0.0347,0.4365,0
2003/8/4 11:45,0,0,0,0.0073,0.6631,0.1843,0.0354,0.4473,0
2003/8/4 12:00,0,0,0,0.0075,0.5946,0.1984,0.0356,0.4477,0
2003/8/4 12:15,0,0,0,0.0073,0.8859,0.177,0.0354,0.4476,0
2003/8/4 12:30,0,0,0,0.0075,0.8837,0.1791,0.0357,0.4497,0
2003/8/4 12:45,0,0,0,0.0075,0.8562,0.1784,0.1198,0.4457,0
2003/8/4 13:00,0,0,0,0.0075,0.8928,0.1788,0.0357,0.4488,0
2003/8/4 13:15,0,0,0,0.0073,0.9284,0.1778,0.0356,0.448,0
2003/8/4 13:30,0,0,0,0.0075,0.7504,0.1784,0.0356,0.4532,0
2003/8/4 13:45,0,0,0,0.0075,0.5148,0.1793,0.0357,0.4487,0
2003/8/4 14:00,0,0,0,0.0073,0.8755,0.1776,0.1051,0.4585,0
2003/8/4 14:15,0,0,0,0.0075,0.8783,0.1776,0.0354,0.4458,0
2003/8/4 14:30,0,0,0,0.0073,0.8506,0.1773,0.0356,0.446,0
2003/8/4 14:45,0,0,0,0.0073,0.8794,0.1768,0.0356,0.4447,0
2003/8/4 15:00,0,0,0,0.0075,0.9148,0.177,0.0354,0.448,0
2003/8/4 15:15,0,0,0,0.0073,0.7939,0.1773,0.12,0.4609,0
2003/8/4 15:30,0,0,0,0.0075,0.489,0.1783,0.0356,0.4494,0
2003/8/4 15:45,0,0,0,0.0073,0.8807,0.177,0.0354,0.4418,0
2003/8/4 16:00,0,0,0,0.0073,0.8852,0.1773,0.0354,0.4431,0
2003/8/4 16:15,0,0,0,0.0073,0.8587,0.1776,0.0354,0.4432,0
2003/8/4 16:30,0,0,0,0.0075,0.8754,0.177,0.0356,0.4457,0
2003/8/4 16:45,0,0,0,0.0935,0.9361,0.1771,0.0354,0.4484,0
2003/8/4 17:00,0,0,0,1.0488,0.849,0.1788,0.0359,0.4074,0
2003/8/4 17:15,0,0,0,0.7433,0.4988,0.1803,0.0359,0.4483,0
2003/8/4 17:30,0,0,0,0.2311,0.7962,0.1794,0.0357,0.4503,0
2003/8/4 17:45,0,0,0,0.0272,0.8935,0.179,0.0359,0.4507,0
2003/8/4 18:00,0,0,0.0092,0.0262,0.8796,0.1776,0.0356,0.4648,0
2003/8/4 18:15,0,0,0,0.0261,0.8608,0.1953,0.0356,0.4622,0
2003/8/4 18:30,0,0,0,0.0261,0.9,0.177,0.1064,0.4523,0
2003/8/4 18:45,0,0,0,0.0258,0.8533,0.1814,0.1171,0.4765,0
2003/8/4 19:00,0,0,0.1714,0.0552,0.9651,0.2058,0.035,0.5242,0
2003/8/4 19:15,0,0,0.6951,0.0765,1.1375,0.3378,0.0351,0.4301,0
2003/8/4 19:30,0,0,0.6771,0.1895,0.9372,0.4092,0.035,0.415,0
2003/8/4 19:45,0,0,0.6656,0.59,0.9543,0.4067,0.0351,0.4628,0
2003/8/4 20:00,0,0,0.6621,0,0.917,0.4092,0.035,0.4736,0
2003/8/4 20:15,0,0,0.6615,0,0.903,0.4074,0.0353,0.4458,0
2003/8/4 20:30,0,0,0.6617,0,0.8662,0.4124,0.0354,0.4496,0
2003/8/4 20:45,0,0,0.6628,0,0.9145,0.4157,0.0357,0.4535,0
2003/8/4 21:00,0,0,0.5674,0.0006,0.9183,0.412,0.035,0.5489,0
2003/8/4 21:15,0,0,0.4385,0.359,0.9003,0.4825,0.035,0.4586,0
2003/8/4 21:30,0,0,0.5239,0,0.9289,0.5207,0.035,0.4523,0
2003/8/4 21:45,0,0,0.3737,0,0.9408,0.517,0.1184,0.4411,0
2003/8/4 22:00,0,0,0.3727,0,0.9048,0.5167,0.0348,0.4478,0
2003/8/4 22:15,0,0,0.3712,0,0.9367,0.521,0.035,0.4543,0
2003/8/4 22:30,0,0,0.4779,0,0.9474,0.481,0.0346,0.4565,0
2003/8/4 22:45,0,0,0.5334,0,0.865,0.409,0.0348,0.4782,0
2003/8/4 23:00,0,0,0.643,0,0.9232,0.3056,0.0346,0.4739,0
2003/8/4 23:15,0,0,0.8042,0,0.924,0.1668,0.1031,0.5769,0
2003/8/4 23:30,0,0,0.3341,0,0.8736,0.2377,0.0348,0.5492,0
2003/8/4 23:45,0,0,0.017,0,0.9276,0.5116,0.0351,0.5028,0
2003/8/5 0:00,0,0,0,0,0.8958,0.2483,0.0353,0.5034,0
2003/8/5 0:15,0,0,0,0,0.6769,0.1692,0.0353,0.4984,0
2003/8/5 0:30,0,0,0,0,0.5388,0.1679,0.1172,0.4946,0
2003/8/5 0:45,0,0,0,0,0.8834,0.1656,0.0351,0.4935,0
2003/8/5 1:00,0,0,0,0,0.8721,0.1639,0.0348,0.4906,0
2003/8/5 1:15,0,0,0,0,0.8198,0.1619,0.0346,0.4856,0
2003/8/5 1:30,0,0,0,0,0.8677,0.1626,0.0347,0.4876,0
2003/8/5 1:45,0,0,0,0,0.9055,0.1626,0.035,0.4918,0
2003/8/5 2:00,0,0,0,0,0.6445,0.1639,0.0351,0.5027,0
2003/8/5 2:15,0,0,0,0,0.5695,0.164,0.035,0.4977,0
2003/8/5 2:30,0,0,0,0,0.8639,0.1621,0.035,0.4782,0
2003/8/5 2:45,0,0,0,0,0.8529,0.1623,0.0348,0.4795,0
2003/8/5 3:00,0,0,0,0,0.7419,0.163,0.035,0.4834,0
2003/8/5 3:15,0,0,0,0,0.4775,0.1644,0.1901,0.4834,0
2003/8/5 3:30,0,0,0,0,0.8595,0.1621,0.035,0.4789,0
2003/8/5 3:45,0,0,0,0,0.8855,0.1621,0.035,0.4798,0
2003/8/5 4:00,0,0,0,0,0.8319,0.1636,0.035,0.4834,0
2003/8/5 4:15,0,0,0,0,0.608,0.1652,0.0351,0.4936,0
2003/8/5 4:30,0,0,0,0,0.6032,0.1656,0.0351,0.4948,0
2003/8/5 4:45,0,0,0,0,0.8597,0.1611,0.0347,0.4742,0
2003/8/5 5:00,0,0,0,0,0.8476,0.1614,0.0347,0.4738,0
2003/8/5 5:15,0,0,0,0,0.8266,0.161,0.0346,0.4692,0
2003/8/5 5:30,0,0,0,0,1.0148,0.1611,0.0346,0.4522,0
2003/8/5 5:45,0,0,0,0,1.1092,0.161,0.0344,0.4527,0
2003/8/5 6:00,0,0,0,0,0.8852,0.1617,0.1174,0.4509,0
2003/8/5 6:15,0,0,0,0,0.9056,0.1649,0.0343,0.4536,0
2003/8/5 6:30,0,0,0.0706,0,0.885,0.344,0.0724,0.4265,0
2003/8/5 6:45,0,0,0.15,0.5243,0.8532,0.4123,0.0343,0.5426,0
2003/8/5 7:00,0,0,0,0,0.9075,0.436,0.0344,0.4353,0
2003/8/5 7:15,0,0,0,0,0.8981,0.4078,0.0344,0.4294,0
2003/8/5 7:30,0,0,0,0,0.8847,0.414,0.0351,0.4372,0
2003/8/5 7:45,0,0,0,0,0.9288,0.4107,0.0348,0.4321,0
2003/8/5 8:00,0,0,0,0,0.8577,0.4107,0.1773,0.4396,0
2003/8/5 8:15,0,0,0.0256,0,0.9287,0.3699,0.6055,0.4022,0
2003/8/5 8:30,0,0,0,0,0.9325,0.178,0.0351,0.4428,0
2003/8/5 8:45,0,0,0,0,0.6293,0.1761,0.035,0.4428,0
2003/8/5 9:00,0,0,0.0003,0,0.6196,0.177,0.1182,0.4409,0
2003/8/5 9:15,0,0,0.0387,0.4369,0.8928,0.3807,0.4959,0.4044,0
2003/8/5 9:30,0,0,0,0,0.8834,0.4124,0.0351,0.4198,0
2003/8/5 9:45,0,0,0.0217,0,0.8473,0.4114,0.5721,0.3882,0
2003/8/5 10:00,0,0,0.0397,0,0.8682,0.3918,0.5954,2.126,0
2003/8/5 10:15,0,0,1.5376,0,0.883,0.1744,0.2568,0.4396,0